Regional Weather Roundup
Issued by NWS

Home | Current Version | Previous Version | Text Only | Print | Product List | Glossary Off
Versions: 1 2 3 4 5 6 7 8 9 10 11 12 13 14 15 16 17 18 19 20 21 22 23 24 25 26 27 28 29 30 31 32 33 34 35 36 37 38 39 40 41 42 43 44 45 46 47 48 49 50

000
ASUS43 KTOP 201008
RWRKS

WEATHER ROUNDUP FOR KANSAS
NATIONAL WEATHER SERVICE GOODLAND KS
500 AM CDT MON OCT 20 2014

NOTE:  "FAIR" INDICATES FEW OR NO CLOUDS BELOW 12,000 FEET WITH NO
SIGNIFICANT WEATHER AND/OR OBSTRUCTIONS TO VISIBILITY.

KSZ001>006-013>018-027>032-041>047-201100-
NORTHWEST KANSAS

CITY           SKY/WX    TMP DP  RH WIND       PRES   REMARKS
GOODLAND       CLEAR     42  39  89 W6        30.13S
HAYS           CLEAR     46  39  76 NW6       30.03S
HILL CITY      CLEAR     44  41  89 W3        30.06S
RUSSELL        CLEAR     47  46  97 NW7       30.02R
$$

KSZ061>065-074>080-084>089-201100-
SOUTHWEST KANSAS

CITY           SKY/WX    TMP DP  RH WIND       PRES   REMARKS
DODGE CITY     MOCLDY    49  47  93 N8        30.04R FOG
ELKHART          N/A     51  43  74 NW6         N/A
GARDEN CITY    CLEAR     48  45  89 N12       30.05S
GREAT BEND     CLOUDY    45  41  87 CALM      30.03R VSB 1/4
LIBERAL        CLEAR     48  41  76 NW7       30.07R
PRATT          FOG       52  52 100 CALM      30.02S VSB 1/4
$$

KSZ066>073-081>083-090>101-201100-
SOUTHEAST KANSAS

CITY           SKY/WX    TMP DP  RH WIND       PRES   REMARKS
CHANUTE        CLOUDY    58  54  86 S6        30.02S
COFFEYVILLE    CLOUDY    58  55  90 S6        30.02F
HUTCHINSON     CLEAR     51  50  96 CALM      30.01F FOG
MEDICINE LODGE   N/A     57  56  96 CALM      30.00S
NEWTON         CLEAR     55  48  76 CALM      30.03F
PARSONS        CLOUDY    59  55  87 S6        30.03F
WICHITA INTL   PTCLDY    58  54  86 CALM      30.01R
WICHITA JABRA  PTCLDY    54  52  93 CALM      30.01S
WICHITA MCCONL CLEAR     57  57 100 CALM      30.02R
WINFIELD       PTCLDY    58  54  86 E5        30.02S
$$

KSZ007>012-019>026-033>040-048>060-102>105-201100-
NORTHEAST KANSAS

CITY           SKY/WX    TMP DP  RH WIND       PRES   REMARKS
CONCORDIA      CLEAR     47  47 100 W5        30.03R
EMPORIA        CLEAR     52  51  97 CALM      30.01S
LAWRENCE       CLEAR     45  44  97 CALM      30.00F
MANHATTAN      CLEAR     46  45  96 CALM      30.01S FOG
MARYSVILLE     CLEAR     45  45 100 CALM      30.01S FOG
OLATHE IND     CLEAR     51  50  96 SW5       30.01S
OLATHE EXE     CLEAR     53  52  96 SW3       29.99F
SALINA         CLEAR     50  46  86 CALM      30.02S
TOPEKA BILLARD CLEAR     49  49 100 CALM      30.01S FOG
TOPEKA FORBES  CLEAR     49  47  93 CALM      30.00S
$$



USA.gov is the U.S. government's official web portal to all federal, state and local government web resources and services.